Vorticity
6 7 9 9 8 8 6 5 5 4 4 4 5 6 7 8 7 6 7 8 8 7 7 6 5 4 4 4 4 4 5 6 6 6 6 6 7 6 7 7 7 7 7 7 7 7 7 7 7 7 7 8 8 9 11 12 14 15 14 12 10 10 8 8 11 10 7 8 9 9 11 11 10 9 10 11 11 12 11 10 9 7 2 1 2
4 5 7 8 9 9 8 7 6 5 4 4 5 4 6 8 7 7 7 7 7 7 7 6 5 5 5 4 4 4 5 5 6 7 7 7 7 8 8 7 7 6 5 4 4 4 3 4 6 6 6 6 6 8 11 11 11 10 9 9 8 9 8 8 9 9 7 7 7 7 8 9 8 8 8 9 10 10 9 8 8 7 3 2 1
4 4 4 5 7 8 9 9 7 7 6 6 6 4 5 6 6 8 7 7 8 7 6 5 4 5 5 4 4 4 5 5 6 7 7 7 6 6 8 8 8 9 8 8 7 6 5 5 6 6 5 5 6 6 6 6 6 7 7 7 7 7 7 6 7 8 6 5 5 5 6 6 6 6 6 7 7 7 8 7 6 6 4 2 2
4 5 4 3 5 6 8 8 7 7 7 7 7 6 5 4 5 8 7 5 6 6 6 5 4 4 5 4 5 5 5 6 7 8 8 9 8 6 7 8 9 10 8 8 8 8 8 7 6 7 6 6 7 6 5 6 7 7 7 7 7 6 6 6 6 6 6 5 4 4 5 5 5 5 5 6 5 5 6 5 3 4 3 3 3
4 5 5 4 4 4 5 7 7 7 7 6 7 7 8 7 6 8 6 5 6 6 5 5 5 5 5 5 5 5 5 6 6 7 8 9 9 7 7 7 7 8 8 7 8 8 8 8 7 8 8 8 8 7 7 6 6 6 5 5 6 5 5 5 4 4 5 5 4 4 5 5 5 5 4 3 3 3 4 4 2 3 4 4 4
6 5 5 5 4 3 3 4 5 6 6 6 6 7 8 9 9 9 7 5 7 6 6 6 6 6 5 6 6 4 5 6 5 6 7 8 9 8 8 7 7 8 9 8 8 9 9 9 7 7 7 8 9 9 10 9 6 6 5 4 5 4 4 4 3 3 3 3 3 4 4 4 4 4 3 2 2 2 3 4 2 1 2 2 4
8 7 6 5 6 5 4 4 3 4 5 5 6 7 7 8 9 11 10 8 9 8 7 7 7 6 5 4 5 5 4 4 4 5 5 5 7 7 8 9 9 9 7 6 6 7 8 8 7 7 7 7 7 9 12 13 11 9 7 6 5 4 4 4 3 3 3 3 3 3 4 3 2 2 2 1 1 1 0 0 1 1 2 4 6
12 11 9 8 7 6 5 5 4 4 4 4 4 4 5 6 6 8 9 9 10 9 8 8 7 6 6 6 7 7 6 7 7 5 4 4 4 5 6 7 9 9 7 7 8 7 7 7 7 7 7 6 7 9 11 13 12 11 10 8 7 7 7 6 6 5 5 5 5 5 5 5 3 3 3 3 3 3 2 2 2 4 6 9 12
12 13 12 10 10 8 8 8 6 6 5 4 5 4 3 5 5 6 7 6 8 9 8 9 8 7 7 8 9 7 5 7 7 5 4 3 4 5 5 6 7 7 7 7 9 8 7 8 8 8 8 7 7 8 9 10 9 8 8 9 9 10 10 10 10 9 7 7 7 7 7 7 7 7 7 7 8 8 9 9 8 8 7 7 10
8 11 12 12 12 10 10 10 8 8 8 6 6 5 4 4 4 5 6 5 7 8 8 9 8 7 7 8 9 9 6 4 4 5 4 4 4 4 5 6 5 4 5 6 8 8 8 8 8 7 7 7 7 7 7 8 8 7 7 8 8 8 9 10 11 11 10 10 10 11 10 10 10 9 9 10 10 10 10 10 9 9 7 5 5
6 7 8 8 10 11 12 12 10 9 9 9 8 8 7 7 6 6 7 6 7 8 8 9 8 7 8 7 6 7 6 5 5 4 2 2 3 3 3 4 4 4 5 5 5 5 4 5 5 4 4 5 5 5 6 6 7 8 8 8 7 6 6 7 8 8 8 8 10 10 10 11 11 11 11 10 10 9 8 8 7 6 6 5 4
7 6 6 4 5 8 8 10 10 9 9 9 9 9 8 7 7 7 7 7 7 7 7 7 8 8 9 9 9 6 5 5 5 3 2 3 5 5 5 5 5 7 7 5 3 3 2 2 2 2 2 2 2 2 3 4 4 5 7 7 7 7 6 6 6 6 6 6 7 7 7 8 8 8 8 8 8 7 5 5 5 5 5 6 5
7 4 5 4 3 4 5 7 8 9 9 9 8 8 7 7 7 7 7 6 5 6 7 7 7 8 9 9 10 8 6 6 6 6 6 6 6 6 6 7 7 7 7 7 6 4 3 3 2 2 3 2 2 2 2 2 3 3 3 4 5 6 6 6 6 6 6 6 5 6 6 6 6 6 6 6 6 5 4 4 5 5 6 6 7
6 4 6 9 8 4 2 4 6 6 6 6 7 7 6 6 6 6 7 7 6 5 6 6 6 7 8 8 8 8 8 6 6 7 6 6 7 7 7 7 8 7 8 8 8 6 6 5 4 4 4 4 4 4 3 4 3 4 4 4 4 4 4 5 5 4 5 5 4 5 6 5 5 6 6 6 6 5 5 5 5 6 7 7 7
4 6 10 11 10 9 6 5 7 7 7 8 8 8 7 6 7 6 5 6 8 8 7 7 6 6 7 7 7 7 7 6 6 6 6 6 6 6 6 7 8 8 8 7 7 7 7 7 6 6 6 6 6 6 6 6 6 6 6 6 5 5 5 6 5 5 4 4 3 4 5 5 6 6 7 7 7 7 6 6 6 6 7 7 7
4 6 7 7 12 15 6 -1 1 5 8 8 6 7 9 7 7 7 8 9 10 10 10 9 8 8 7 6 7 8 8 9 8 8 7 8 8 8 9 9 8 9 9 8 8 8 7 7 7 6 6 6 6 7 7 7 8 8 8 7 7 7 7 7 6 6 5 4 4 3 4 5 6 6 6 6 7 8 8 7 8 7 7 8 7
9 7 3 3 10 8 -4 -2 12 17 14 9 2 2 6 7 6 5 7 10 11 7 6 5 7 10 9 7 7 7 7 7 7 6 6 6 7 8 8 7 8 8 9 9 9 9 9 8 6 5 5 6 6 6 7 7 7 7 8 8 7 7 6 6 6 6 6 5 4 3 4 5 5 4 4 4 5 6 5 6 7 7 8 8 8
17 19 14 8 6 -1 -7 7 20 16 10 8 2 -1 1 3 5 5 4 7 10 8 4 1 2 5 7 7 8 7 6 6 7 7 5 3 4 4 3 3 5 6 7 8 8 8 5 2 0 2 6 9 9 8 7 6 7 8 8 6 4 3 5 6 7 7 6 4 3 4 6 7 7 7 5 5 5 5 5 6 7 6 6 7 7
10 19 27 29 22 10 2 9 14 9 6 5 0 2 8 6 3 2 2 4 6 7 5 2 1 3 4 5 7 7 6 5 4 5 6 4 3 2 2 4 6 8 8 8 8 10 10 9 10 12 13 13 12 10 8 7 6 7 8 5 2 1 3 6 7 7 5 3 3 5 8 9 9 10 10 8 8 7 9 10 10 8 6 5 5
5 11 23 32 35 29 17 11 14 18 20 19 10 2 5 10 8 4 3 4 5 6 5 2 3 5 6 5 5 8 9 8 7 6 5 3 2 3 6 8 9 10 11 13 15 17 18 18 14 11 11 13 15 13 10 8 7 7 6 3 1 3 5 8 9 8 6 6 6 7 9 9 11 13 13 12 11 11 11 11 13 13 11 8 7
9 10 12 13 16 18 11 4 6 10 16 34 43 25 7 8 12 6 2 3 4 4 5 5 4 6 8 7 5 8 9 6 7 7 4 2 3 5 9 10 10 10 11 14 17 17 18 17 11 2 2 12 25 28 18 9 8 9 6 4 5 8 9 8 8 9 9 9 9 9 9 8 10 11 11 11 11 13 13 11 11 13 14 12 11
15 9 7 7 6 6 7 8 10 7 5 20 42 43 30 25 22 14 8 8 6 5 11 16 13 9 10 7 3 6 8 7 13 16 10 6 6 7 9 9 10 14 14 13 15 15 14 14 12 6 3 10 25 33 23 11 10 11 9 7 8 9 9 10 13 18 20 17 13 12 11 10 11 12 14 16 18 18 18 15 13 12 12 12 12
9 0 -4 3 6 2 5 9 7 4 2 1 5 13 18 21 22 20 16 12 9 9 16 21 15 7 7 5 3 5 5 2 6 7 3 2 6 11 15 13 10 11 12 10 7 7 8 11 14 16 14 12 18 24 19 12 10 10 8 6 7 9 11 15 19 23 23 21 17 16 15 14 14 14 14 15 15 15 15 15 15 14 13 12 12
5 4 -0 3 5 1 3 4 -2 -4 3 6 4 4 7 9 13 18 21 20 18 19 23 28 25 19 13 8 7 11 11 5 2 2 4 10 12 8 6 7 9 10 8 5 2 1 4 7 6 6 5 6 12 20 19 13 9 8 8 9 11 13 13 11 11 12 14 14 14 14 12 10 9 7 6 5 5 5 7 7 8 8 8 7 7
8 11 8 7 7 4 5 8 7 4 5 7 10 12 13 11 8 9 16 20 17 14 14 17 25 32 31 22 11 7 8 9 9 6 3 3 8 11 11 13 16 13 7 6 3 -1 -2 -4 -8 -7 -4 -0 8 14 16 14 13 13 14 15 14 11 6 3 3 4 5 6 6 6 5 4 3 2 2 3 4 4 5 5 5 5 5 5 5
7 8 9 10 10 7 6 7 9 10 9 8 10 8 5 7 6 5 7 5 -4 -9 -8 -6 3 17 28 31 27 23 25 30 32 31 26 16 11 13 15 15 15 12 9 9 5 -1 -2 -1 0 3 4 4 5 6 6 8 9 9 9 9 7 5 2 1 2 3 4 5 4 4 3 3 3 3 4 5 6 7 7 7 7 7 7 7 8
8 8 9 12 14 12 7 3 5 9 11 12 13 11 7 6 5 4 5 1 -5 -7 -5 -5 -4 2 9 20 30 33 29 22 16 21 35 41 35 28 24 20 17 11 7 5 1 -2 1 4 5 6 7 7 8 7 6 6 6 5 5 4 4 5 5 4 5 6 7 9 8 8 7 6 7 7 8 8 8 7 7 7 7 7 7 7 8
11 11 9 11 14 15 11 8 9 12 12 10 10 10 11 12 9 4 3 5 7 10 11 9 8 8 8 10 9 1 -5 -5 -5 -2 8 21 28 32 33 32 28 20 14 10 7 7 8 8 6 6 6 6 7 7 8 8 7 7 7 6 6 6 7 7 8 7 6 7 7 8 9 10 9 9 7 6 6 5 5 5 5 5 5 5 5
11 12 12 10 10 10 11 11 9 8 8 10 9 5 3 3 5 4 3 5 7 9 12 15 15 16 19 18 10 -1 -6 -6 -6 -7 -6 -3 1 3 4 8 12 13 12 12 12 12 12 10 7 5 4 3 5 7 8 8 7 7 7 7 7 7 7 6 6 6 5 5 5 5 6 7 8 8 7 7 6 5 4 3 2 2 3 3 3
12 13 13 10 8 6 6 7 6 2 0 4 8 9 7 4 3 4 4 4 3 2 4 7 10 11 14 16 15 13 10 2 -4 -5 -1 2 1 -4 -8 -3 4 5 5 6 7 7 8 9 9 9 8 7 7 7 6 6 6 6 6 6 5 5 5 5 6 6 6 6 5 5 5 4 4 4 4 3 3 3 3 2 1 1 1 1 2
10 13 14 14 13 10 5 3 2 -2 -5 -5 -3 2 5 5 6 9 9 8 8 7 5 7 9 11 11 11 10 12 14 16 16 17 16 13 9 4 1 4 8 6 4 5 5 4 5 8 9 10 10 9 8 7 7 7 6 5 5 5 5 4 4 4 4 5 5 5 4 4 4 4 4 3 2 1 1 1 1 1 1 1 1 1 1
5 7 9 12 14 15 13 9 4 0 -1 -2 -2 1 2 1 1 5 7 8 10 10 8 7 8 7 7 7 8 8 9 9 9 8 10 12 11 9 9 10 9 6 5 6 6 6 7 9 9 9 9 8 7 6 6 6 6 5 4 4 4 5 4 3 2 2 2 2 2 2 3 3 3 2 2 2 2 2 1 1 2 2 2 2 3
8 7 7 8 9 12 14 15 12 9 6 4 4 6 7 6 5 3 2 4 7 9 9 9 8 7 6 6 6 7 8 8 5 3 5 7 6 6 6 5 3 3 5 6 6 6 6 7 7 7 7 6 5 5 4 4 4 4 4 3 4 4 5 5 6 5 5 4 4 3 4 4 4 4 4 4 4 4 5 5 6 6 6 7 8
9 9 9 9 8 8 9 12 13 13 11 10 10 10 10 12 12 9 7 8 7 6 6 7 8 8 6 5 8 10 9 6 5 5 6 5 4 5 6 4 3 5 6 6 6 7 8 8 7 7 7 7 7 7 6 5 4 4 4 4 4 4 4 5 6 6 7 6 5 5 6 6 7 7 8 8 7 8 8 8 9 9 9 10 10
7 6 7 8 8 8 7 8 10 12 12 10 10 10 11 12 12 11 10 10 8 6 6 7 9 10 8 5 8 14 14 10 8 10 10 10 8 7 6 6 7 8 7 6 6 7 8 8 8 8 8 8 8 7 7 7 7 6 6 6 6 6 5 5 4 3 3 4 4 4 5 6 6 7 8 9 9 10 10 10 9 10 10 10 11
8 6 5 4 6 7 7 6 7 8 10 11 10 9 9 9 9 8 7 5 4 4 7 8 8 9 11 9 6 4 3 0 -0 3 6 7 7 7 7 8 8 8 7 8 9 9 8 8 8 7 7 7 7 7 7 6 5 5 6 6 5 5 5 4 4 4 5 6 7 7 7 7 7 7 7 8 8 9 10 10 11 11 11 11 11
13 12 10 7 7 8 9 9 8 7 6 9 11 11 10 9 10 11 11 11 8 7 7 9 8 7 8 9 9 6 3 0 0 3 5 4 2 2 3 4 5 6 6 6 7 7 7 7 7 7 7 7 7 6 6 6 5 5 5 5 4 3 3 3 3 4 6 7 8 8 8 8 9 10 10 9 9 8 8 8 8 9 9 8 8
15 15 14 13 12 12 12 13 14 13 11 10 11 12 12 11 11 10 10 12 12 9 6 5 4 4 5 7 7 7 7 5 5 6 6 5 5 5 5 5 6 6 6 6 6 6 6 5 5 4 4 4 4 4 4 4 4 4 3 3 3 3 3 4 5 6 7 7 7 8 9 9 9 10 10 10 9 9 8 8 7 7 7 7 7
10 10 10 10 10 10 11 11 12 14 14 14 14 14 15 15 15 13 10 7 7 7 7 5 3 4 7 9 9 9 11 12 12 10 8 7 6 4 3 4 3 3 3 3 3 4 4 5 5 5 5 4 4 4 4 3 3 4 6 7 8 9 10 10 10 8 7 8 8 9 10 11 11 11 11 10 10 10 9 9 9 9 8 8 8
14 13 12 11 10 9 9 9 9 9 11 12 14 15 15 16 18 19 20 17 13 9 7 7 7 7 7 8 10 11 12 13 14 13 14 15 15 14 13 13 12 10 8 6 3 2 1 2 3 4 5 6 6 6 7 8 8 8 8 9 11 11 11 10 9 8 9 10 11 11 12 12 12 11 10 10 9 9 9 9 8 8 7 7 6
14 15 16 16 15 14 13 11 10 8 7 7 8 9 10 11 11 13 15 18 17 15 11 9 10 10 9 8 7 6 6 7 8 8 8 10 12 13 13 11 10 9 8 7 7 7 6 6 6 6 6 6 7 7 8 9 10 11 11 10 9 8 8 8 9 10 11 12 12 12 11 9 8 8 7 7 7 7 7 6 6 5 5 5 5
13 13 13 14 14 16 16 16 15 14 11 9 8 7 6 7 8 8 9 10 12 14 13 11 11 10 9 8 6 2 -1 -0 2 3 4 5 7 8 9 9 9 9 9 10 10 11 11 13 13 12 12 11 10 9 7 6 7 7 7 6 6 6 7 9 10 11 11 11 10 9 8 7 7 6 6 6 6 6 6 6 6 6 7 7 7
11 12 12 12 13 14 14 13 13 14 14 13 12 10 9 8 8 8 8 8 9 10 11 13 14 13 11 10 10 9 7 5 2 1 0 2 4 5 6 7 8 8 10 12 13 13 14 15 15 14 14 13 13 13 13 12 11 11 10 10 10 9 8 8 7 6 5 4 3 3 3 3 3 3 4 5 6 6 7 7 7 7 7 7 7
11 11 11 11 11 11 12 12 12 12 13 13 13 13 12 12 12 11 11 11 10 9 9 10 11 12 12 12 12 13 14 15 13 10 7 5 5 5 3 3 3 4 4 5 5 6 7 7 8 9 9 10 10 10 10 10 10 10 9 8 7 6 6 6 4 3 3 3 4 4 4 4 4 5 6 6 6 6 6 6 6 6 6 6 7
8 8 9 9 9 9 10 10 10 11 11 12 12 13 14 14 12 11 10 10 10 10 10 9 9 11 12 14 14 14 14 15 17 19 19 18 17 16 15 13 12 12 10 8 7 6 5 3 3 4 3 3 3 3 3 4 5 5 5 5 5 5 7 7 8 8 10 10 10 10 10 10 11 10 10 9 9 9 8 8 8 8 8 8 8
9 10 10 10 11 12 12 10 9 10 11 12 13 14 15 14 13 13 13 13 12 12 12 13 13 13 13 13 14 13 13 14 15 15 14 14 13 13 15 16 16 15 14 12 11 10 9 8 8 8 7 7 6 6 6 7 8 8 9 9 9 10 11 11 11 11 11 11 11 11 11 11 11 10 10 11 10 10 10 10 10 10 9 9 9
11 12 13 13 14 14 13 13 13 14 14 13 12 11 10 9 10 13 15 16 17 17 16 15 15 15 15 17 19 18 16 15 13 10 9 10 12 12 11 11 10 10 10 11 11 11 11 11 11 11 11 11 11 11 10 10 11 11 12 11 11 12 11 10 10 10 10 10 11 10 10 10 10 10 10 10 10 10 10 10 10 10 10 10 10
13 14 14 15 16 16 16 16 17 17 15 14 15 17 19 19 18 17 15 14 13 12 11 12 14 12 8 7 11 16 19 20 21 22 20 18 17 17 15 13 12 12 11 10 10 9 10 10 10 10 10 10 10 11 11 10 9 10 10 11 11 11 11 10 11 10 10 10 9 9 9 9 9 9 9 9 9 9 9 9 9 9 9 10 10
13 13 13 14 15 15 15 16 17 17 17 18 18 18 19 21 22 22 24 27 28 21 11 6 8 12 15 15 15 13 10 7 8 13 18 19 18 18 17 16 16 16 15 14 13 13 13 13 12 11 11 10 10 10 10 11 11 11 11 11 11 11 10 9 9 8 8 8 8 8 8 8 8 9 9 9 9 9 9 10 10 10 10 10 11
13 13 14 14 14 14 14 14 14 14 16 17 16 13 11 11 10 5 2 8 20 28 28 20 10 4 4 7 6 3 -0 -3 -4 -1 5 11 13 14 14 14 15 17 17 17 16 15 14 14 14 14 14 14 14 14 14 13 12 10 9 8 8 7 6 6 6 6 7 8 7 8 9 10 10 11 11 10 11 11 12 12 12 13 13 14 14
15 15 15 15 16 16 17 18 19 19 19 18 16 14 14 16 17 12 1 -7 -5 7 23 32 30 21 15 14 14 16 19 21 17 12 9 8 8 7 7 8 8 7 5 3 2 2 3 3 4 5 6 6 6 5 4 2 1 1 2 4 5 5 6 7 8 8 9 9 10 10 11 11 11 12 12 13 13 14 14 14 15 16 16 15 15
Height
5941 5942 5943 5943 5944 5944 5945 5946 5947 5948 5949 5950 5951 5952 5953 5954 5954 5955 5956 5957 5957 5958 5958 5959 5959 5960 5960 5961 5961 5961 5962 5962 5962 5962 5962 5963 5963 5963 5964 5964 5964 5964 5964 5964 5964 5964 5963 5963 5963 5963 5963 5963 5962 5962 5961 5960 5960 5960 5959 5959 5958 5958 5957 5956 5955 5954 5953 5952 5951 5950 5950 5949 5949 5949 5948 5948 5948 5948 5948 5947 5947 5947 5947 5946 5945
5939 5940 5941 5942 5943 5943 5944 5945 5946 5947 5948 5949 5950 5951 5952 5953 5954 5955 5955 5956 5957 5957 5958 5958 5959 5959 5960 5960 5960 5960 5961 5961 5961 5962 5962 5962 5962 5963 5963 5963 5964 5964 5964 5964 5963 5963 5963 5963 5963 5963 5963 5962 5962 5961 5961 5960 5960 5959 5959 5958 5958 5957 5957 5956 5955 5954 5953 5952 5951 5950 5949 5949 5949 5948 5948 5947 5947 5947 5947 5947 5946 5946 5946 5945 5945
5938 5939 5940 5941 5942 5943 5943 5944 5945 5946 5947 5948 5949 5950 5951 5952 5953 5954 5954 5955 5956 5956 5957 5958 5958 5959 5959 5960 5960 5960 5960 5960 5961 5961 5961 5961 5962 5962 5962 5963 5963 5963 5963 5963 5963 5963 5963 5962 5962 5962 5962 5962 5961 5961 5961 5960 5960 5959 5959 5958 5957 5957 5956 5955 5955 5954 5954 5952 5951 5950 5950 5949 5949 5948 5948 5947 5947 5947 5946 5946 5946 5946 5945 5945 5944
5936 5937 5939 5940 5941 5942 5942 5943 5944 5945 5946 5947 5948 5949 5950 5950 5951 5952 5953 5954 5955 5956 5956 5957 5957 5958 5959 5959 5959 5959 5960 5960 5960 5960 5960 5961 5961 5961 5961 5962 5962 5962 5962 5962 5962 5962 5962 5962 5962 5961 5961 5961 5961 5961 5961 5960 5960 5959 5958 5958 5957 5957 5956 5955 5955 5954 5954 5953 5952 5951 5951 5950 5949 5948 5948 5947 5947 5946 5946 5945 5945 5945 5945 5944 5943
5935 5936 5937 5938 5939 5940 5941 5942 5943 5943 5944 5945 5946 5947 5948 5949 5950 5951 5952 5953 5954 5955 5955 5956 5957 5957 5958 5958 5958 5959 5959 5959 5959 5959 5960 5960 5960 5960 5960 5960 5960 5961 5961 5961 5961 5961 5961 5961 5961 5961 5960 5960 5960 5960 5960 5959 5959 5958 5957 5957 5957 5956 5956 5955 5955 5954 5954 5953 5952 5951 5951 5950 5949 5949 5948 5947 5946 5946 5945 5945 5944 5944 5944 5943 5943
5933 5934 5935 5937 5937 5938 5940 5941 5942 5942 5943 5944 5945 5946 5947 5948 5949 5950 5951 5952 5952 5953 5954 5954 5955 5956 5956 5957 5957 5958 5958 5958 5959 5959 5958 5959 5959 5959 5959 5959 5959 5959 5959 5959 5959 5959 5959 5959 5959 5959 5959 5959 5959 5958 5958 5958 5957 5957 5956 5956 5956 5956 5956 5955 5954 5954 5953 5953 5952 5951 5951 5950 5949 5948 5948 5947 5946 5946 5945 5944 5943 5943 5943 5942 5942
5931 5933 5934 5935 5936 5937 5938 5939 5940 5941 5942 5943 5944 5945 5946 5947 5948 5949 5949 5950 5951 5951 5952 5952 5953 5954 5954 5955 5956 5956 5957 5957 5957 5957 5957 5957 5957 5957 5957 5957 5957 5957 5957 5957 5957 5958 5958 5958 5958 5958 5958 5958 5957 5957 5956 5956 5956 5956 5956 5955 5955 5955 5955 5954 5954 5953 5953 5952 5951 5951 5950 5950 5949 5948 5947 5947 5946 5945 5944 5943 5942 5942 5942 5942 5941
5929 5930 5932 5933 5934 5935 5936 5937 5938 5939 5941 5942 5943 5943 5944 5945 5946 5947 5948 5948 5949 5949 5950 5950 5951 5952 5952 5953 5954 5955 5956 5956 5956 5956 5956 5956 5955 5955 5955 5955 5955 5955 5955 5955 5956 5956 5956 5956 5957 5957 5956 5956 5955 5955 5954 5954 5954 5954 5954 5953 5953 5953 5953 5953 5952 5952 5951 5951 5950 5950 5949 5949 5948 5947 5946 5946 5946 5945 5944 5943 5941 5941 5940 5940 5940
5927 5928 5929 5930 5931 5932 5933 5934 5936 5937 5939 5940 5941 5942 5943 5944 5945 5946 5946 5947 5947 5948 5949 5949 5950 5950 5951 5951 5952 5953 5954 5954 5954 5954 5954 5954 5954 5953 5953 5953 5953 5953 5953 5954 5954 5954 5954 5955 5955 5955 5954 5954 5953 5953 5952 5953 5952 5952 5952 5952 5952 5952 5951 5951 5950 5950 5949 5949 5949 5948 5948 5947 5946 5945 5945 5945 5944 5944 5943 5942 5941 5940 5939 5938 5938
5924 5925 5927 5928 5929 5930 5931 5932 5933 5934 5936 5937 5938 5940 5941 5942 5943 5944 5945 5945 5947 5947 5948 5948 5949 5949 5949 5950 5950 5951 5951 5951 5951 5951 5952 5952 5952 5951 5951 5951 5951 5951 5951 5952 5952 5952 5952 5952 5953 5953 5952 5951 5951 5951 5951 5951 5950 5950 5950 5950 5950 5950 5949 5949 5948 5948 5947 5947 5947 5947 5946 5945 5944 5944 5943 5943 5942 5942 5941 5941 5940 5939 5938 5937 5936
5920 5921 5923 5924 5926 5927 5929 5930 5931 5931 5932 5934 5935 5937 5939 5940 5941 5942 5943 5944 5945 5946 5946 5946 5947 5947 5947 5948 5948 5948 5948 5948 5948 5949 5949 5949 5949 5949 5949 5949 5949 5949 5949 5949 5950 5950 5950 5950 5951 5951 5950 5949 5949 5949 5949 5948 5948 5948 5948 5948 5948 5948 5947 5947 5946 5946 5945 5945 5945 5945 5944 5943 5943 5942 5942 5941 5941 5940 5940 5939 5938 5938 5937 5936 5934
5916 5917 5919 5919 5921 5922 5924 5926 5928 5928 5929 5930 5932 5934 5936 5937 5937 5938 5940 5941 5942 5942 5943 5943 5944 5944 5945 5946 5946 5945 5945 5945 5945 5946 5946 5947 5947 5947 5947 5948 5948 5947 5947 5947 5948 5948 5948 5948 5948 5948 5948 5947 5947 5946 5946 5946 5946 5946 5946 5945 5946 5946 5945 5945 5944 5944 5943 5943 5942 5942 5942 5941 5941 5941 5940 5940 5939 5939 5938 5938 5937 5936 5935 5934 5933
5915 5915 5916 5916 5916 5918 5920 5922 5924 5925 5926 5927 5928 5930 5932 5933 5934 5935 5936 5937 5938 5938 5939 5940 5941 5941 5942 5943 5944 5943 5943 5943 5943 5943 5943 5944 5944 5945 5945 5945 5945 5945 5945 5945 5945 5945 5945 5945 5945 5946 5945 5945 5945 5944 5944 5944 5944 5943 5943 5943 5943 5943 5943 5942 5942 5941 5941 5940 5940 5940 5940 5940 5939 5938 5938 5938 5937 5937 5936 5936 5935 5935 5934 5933 5932
5914 5914 5915 5916 5916 5917 5919 5920 5921 5922 5923 5924 5925 5926 5928 5929 5930 5931 5932 5932 5934 5935 5936 5936 5937 5938 5939 5940 5940 5941 5940 5940 5940 5940 5940 5941 5941 5941 5942 5943 5943 5943 5943 5943 5943 5942 5942 5942 5942 5942 5943 5942 5942 5942 5941 5941 5941 5941 5940 5940 5940 5940 5940 5940 5939 5938 5938 5938 5937 5937 5937 5937 5937 5936 5936 5935 5935 5934 5934 5933 5932 5932 5932 5931 5930
5912 5913 5914 5915 5916 5917 5917 5918 5919 5919 5920 5922 5923 5923 5923 5925 5927 5928 5928 5928 5930 5931 5932 5933 5933 5934 5935 5936 5936 5937 5937 5937 5937 5937 5937 5938 5938 5938 5939 5939 5940 5940 5940 5940 5940 5939 5939 5939 5939 5939 5939 5939 5939 5939 5938 5938 5938 5938 5938 5938 5938 5938 5937 5937 5936 5936 5935 5934 5934 5934 5933 5933 5933 5933 5933 5932 5932 5932 5931 5930 5930 5929 5929 5928 5927
5908 5909 5910 5912 5912 5912 5913 5914 5915 5916 5917 5918 5919 5920 5920 5922 5924 5924 5924 5925 5926 5927 5928 5929 5930 5930 5931 5932 5932 5933 5934 5934 5934 5934 5934 5934 5935 5935 5935 5936 5937 5938 5938 5937 5936 5936 5936 5936 5935 5935 5935 5935 5935 5935 5935 5935 5935 5935 5935 5935 5935 5935 5935 5934 5933 5933 5932 5932 5931 5931 5931 5930 5930 5930 5930 5929 5929 5928 5928 5928 5927 5927 5926 5925 5924
5903 5904 5905 5906 5906 5907 5908 5909 5911 5912 5912 5913 5915 5916 5917 5918 5919 5920 5921 5921 5922 5922 5923 5924 5926 5926 5927 5928 5929 5929 5930 5931 5931 5931 5931 5931 5931 5931 5932 5932 5933 5934 5934 5934 5933 5932 5932 5932 5932 5932 5932 5932 5932 5932 5932 5932 5932 5932 5932 5932 5932 5932 5932 5931 5930 5930 5929 5929 5928 5928 5927 5927 5927 5926 5926 5926 5926 5925 5925 5925 5925 5924 5924 5923 5921
5899 5900 5900 5901 5902 5904 5905 5906 5907 5908 5908 5909 5911 5912 5913 5913 5913 5914 5916 5917 5918 5919 5919 5920 5921 5922 5923 5924 5925 5925 5926 5927 5927 5928 5928 5928 5928 5928 5928 5928 5928 5929 5929 5930 5929 5929 5929 5928 5928 5928 5928 5927 5927 5927 5927 5927 5928 5928 5929 5929 5929 5929 5929 5929 5928 5927 5926 5925 5925 5924 5924 5924 5923 5923 5923 5922 5922 5922 5922 5922 5921 5921 5920 5919 5918
5896 5896 5896 5896 5898 5900 5902 5904 5905 5905 5906 5907 5908 5907 5908 5908 5908 5908 5910 5911 5913 5914 5916 5917 5917 5918 5919 5919 5920 5921 5921 5922 5923 5924 5924 5925 5925 5925 5924 5924 5924 5924 5924 5925 5925 5925 5925 5924 5924 5924 5923 5923 5922 5922 5922 5923 5924 5925 5925 5925 5925 5925 5926 5926 5925 5924 5923 5922 5921 5921 5920 5920 5919 5919 5919 5919 5918 5918 5918 5918 5917 5917 5916 5915 5915
5892 5893 5893 5893 5894 5896 5898 5900 5901 5902 5902 5903 5904 5904 5904 5903 5903 5905 5906 5907 5908 5909 5911 5912 5912 5913 5914 5915 5915 5916 5917 5918 5919 5919 5920 5921 5921 5921 5920 5920 5919 5919 5919 5920 5920 5920 5920 5920 5920 5919 5919 5918 5917 5917 5918 5919 5920 5921 5921 5921 5921 5922 5922 5921 5921 5920 5919 5919 5918 5917 5917 5916 5916 5915 5915 5915 5915 5915 5914 5914 5913 5913 5912 5911 5911
5890 5891 5891 5891 5892 5893 5894 5895 5896 5897 5897 5897 5898 5899 5899 5899 5899 5901 5903 5904 5904 5905 5907 5907 5908 5909 5910 5911 5912 5914 5914 5913 5914 5915 5916 5916 5916 5916 5915 5915 5915 5915 5916 5916 5916 5917 5917 5916 5916 5916 5915 5914 5913 5913 5914 5915 5915 5916 5917 5917 5918 5918 5917 5917 5916 5916 5916 5915 5914 5913 5913 5912 5912 5911 5911 5911 5911 5911 5910 5910 5909 5909 5909 5908 5907
5887 5888 5887 5887 5888 5890 5891 5892 5893 5893 5893 5893 5893 5893 5894 5895 5896 5897 5898 5899 5899 5900 5902 5903 5904 5905 5906 5906 5907 5908 5908 5908 5909 5910 5910 5910 5910 5910 5910 5911 5912 5913 5913 5914 5913 5913 5912 5912 5912 5911 5911 5909 5909 5909 5910 5911 5912 5912 5913 5914 5914 5914 5913 5912 5912 5911 5911 5910 5910 5910 5910 5909 5908 5907 5907 5908 5907 5907 5906 5906 5906 5905 5905 5904 5904
5883 5883 5884 5884 5885 5886 5888 5889 5889 5889 5889 5889 5889 5889 5891 5892 5893 5894 5894 5895 5895 5896 5897 5898 5898 5899 5901 5902 5902 5902 5902 5903 5904 5904 5904 5905 5905 5905 5906 5908 5909 5909 5910 5911 5910 5908 5908 5908 5908 5906 5906 5905 5905 5905 5906 5907 5908 5909 5909 5910 5910 5910 5909 5908 5907 5906 5905 5905 5905 5906 5906 5906 5905 5904 5904 5904 5904 5903 5902 5902 5902 5902 5901 5900 5900
5879 5880 5881 5881 5881 5882 5883 5884 5884 5885 5886 5885 5886 5886 5887 5888 5890 5891 5891 5892 5892 5892 5892 5893 5893 5893 5895 5896 5896 5896 5897 5898 5899 5899 5899 5900 5900 5900 5901 5902 5903 5903 5904 5905 5905 5904 5905 5905 5903 5901 5901 5902 5902 5902 5902 5903 5904 5905 5906 5906 5906 5905 5904 5903 5902 5901 5901 5901 5901 5902 5902 5902 5901 5901 5901 5901 5900 5899 5898 5899 5899 5898 5897 5896 5896
5876 5877 5878 5878 5878 5878 5878 5879 5880 5881 5882 5882 5883 5884 5884 5885 5886 5887 5888 5888 5888 5887 5887 5888 5889 5889 5889 5889 5889 5890 5892 5893 5894 5893 5893 5894 5895 5895 5896 5896 5897 5898 5898 5898 5899 5900 5901 5900 5898 5897 5898 5899 5899 5899 5899 5899 5900 5901 5902 5902 5901 5900 5899 5899 5898 5897 5897 5897 5897 5898 5898 5898 5898 5898 5897 5897 5896 5895 5895 5895 5895 5894 5893 5892 5892
5873 5873 5874 5875 5875 5874 5874 5874 5876 5877 5877 5877 5879 5880 5880 5881 5882 5883 5884 5884 5883 5883 5883 5884 5885 5885 5884 5884 5884 5885 5886 5886 5886 5886 5887 5888 5889 5890 5891 5891 5891 5891 5891 5892 5893 5895 5895 5895 5894 5894 5895 5896 5896 5896 5895 5896 5897 5898 5898 5897 5896 5895 5895 5895 5895 5894 5893 5893 5892 5893 5893 5893 5893 5893 5893 5892 5892 5891 5891 5890 5889 5889 5889 5888 5887
5868 5869 5870 5871 5871 5870 5870 5871 5872 5872 5872 5872 5873 5874 5876 5877 5877 5878 5879 5879 5878 5878 5879 5880 5881 5881 5881 5881 5881 5881 5880 5879 5880 5881 5882 5883 5884 5885 5885 5886 5885 5885 5886 5886 5888 5889 5890 5890 5890 5890 5891 5891 5891 5891 5891 5892 5893 5893 5893 5892 5892 5891 5891 5891 5891 5890 5889 5888 5887 5887 5887 5888 5888 5888 5888 5887 5887 5887 5886 5885 5884 5884 5883 5883 5882
5862 5864 5865 5865 5865 5866 5866 5867 5868 5868 5867 5867 5868 5869 5870 5871 5872 5873 5873 5874 5874 5874 5874 5875 5876 5877 5877 5878 5878 5878 5876 5876 5877 5878 5879 5880 5880 5881 5881 5882 5882 5882 5882 5882 5883 5884 5885 5885 5885 5885 5886 5886 5886 5886 5886 5887 5887 5888 5887 5887 5886 5886 5886 5885 5885 5885 5884 5883 5883 5883 5883 5883 5883 5883 5883 5882 5882 5881 5881 5880 5880 5879 5878 5877 5876
5857 5858 5859 5860 5860 5861 5862 5862 5863 5863 5862 5862 5863 5864 5865 5866 5867 5867 5868 5868 5869 5869 5869 5870 5870 5871 5872 5873 5873 5873 5873 5873 5874 5874 5875 5876 5876 5877 5877 5877 5877 5877 5877 5878 5878 5878 5879 5879 5880 5880 5880 5880 5880 5880 5880 5880 5881 5881 5881 5881 5880 5880 5879 5879 5879 5879 5878 5878 5878 5878 5878 5878 5878 5878 5877 5877 5876 5875 5875 5874 5874 5873 5872 5871 5870
5851 5853 5854 5854 5855 5856 5856 5857 5857 5857 5857 5857 5858 5859 5859 5860 5861 5862 5862 5862 5863 5864 5864 5864 5865 5865 5867 5868 5868 5868 5868 5868 5869 5869 5870 5871 5871 5871 5872 5872 5872 5872 5872 5872 5872 5872 5873 5874 5874 5874 5875 5874 5874 5874 5874 5874 5874 5874 5874 5874 5874 5873 5873 5873 5873 5873 5873 5872 5872 5872 5873 5873 5872 5871 5871 5870 5869 5868 5868 5867 5867 5866 5866 5865 5863
5845 5846 5848 5848 5849 5850 5850 5851 5851 5852 5852 5852 5852 5853 5853 5854 5855 5855 5856 5857 5857 5858 5859 5859 5859 5860 5861 5862 5862 5863 5863 5863 5863 5863 5863 5864 5865 5865 5865 5866 5866 5866 5867 5867 5867 5867 5868 5868 5869 5869 5869 5869 5868 5867 5867 5867 5867 5867 5867 5867 5867 5867 5867 5867 5867 5867 5867 5866 5866 5866 5866 5866 5865 5865 5864 5863 5862 5861 5860 5860 5859 5859 5859 5858 5857
5838 5839 5840 5841 5842 5843 5844 5844 5845 5845 5846 5846 5847 5847 5848 5848 5848 5849 5850 5851 5851 5852 5852 5853 5854 5855 5855 5856 5857 5857 5857 5857 5857 5857 5857 5858 5858 5859 5859 5859 5860 5861 5861 5862 5861 5862 5862 5863 5863 5863 5863 5863 5863 5862 5861 5860 5860 5860 5860 5860 5861 5861 5861 5861 5861 5861 5861 5860 5860 5860 5859 5858 5857 5857 5856 5856 5855 5854 5853 5852 5852 5852 5852 5851 5851
5833 5833 5833 5834 5835 5836 5837 5837 5838 5838 5839 5840 5840 5841 5842 5842 5842 5843 5843 5844 5845 5846 5846 5847 5848 5849 5849 5850 5851 5851 5852 5852 5851 5851 5851 5851 5852 5852 5853 5853 5854 5855 5856 5856 5856 5856 5857 5857 5857 5857 5857 5856 5856 5856 5855 5854 5853 5853 5853 5853 5853 5853 5854 5855 5855 5855 5854 5854 5853 5852 5851 5850 5850 5849 5849 5848 5847 5846 5846 5845 5845 5845 5845 5844 5844
5827 5827 5827 5827 5828 5829 5830 5831 5832 5832 5832 5833 5833 5834 5835 5836 5836 5836 5837 5837 5838 5839 5840 5841 5842 5843 5843 5844 5845 5845 5846 5846 5846 5845 5845 5845 5845 5845 5846 5847 5849 5849 5849 5849 5849 5850 5850 5850 5849 5849 5849 5849 5849 5849 5848 5848 5847 5846 5846 5846 5846 5846 5847 5847 5847 5847 5847 5846 5846 5845 5844 5843 5842 5842 5841 5840 5840 5839 5838 5838 5837 5837 5836 5835 5834
5820 5821 5821 5820 5821 5821 5822 5823 5825 5826 5826 5826 5827 5827 5828 5828 5829 5830 5830 5831 5831 5832 5834 5835 5836 5836 5837 5838 5838 5839 5839 5839 5839 5839 5839 5839 5839 5839 5839 5841 5842 5842 5842 5842 5842 5843 5842 5842 5842 5842 5842 5842 5842 5842 5841 5841 5840 5840 5840 5839 5839 5839 5839 5839 5839 5839 5838 5838 5837 5836 5836 5835 5834 5833 5832 5832 5831 5830 5830 5829 5829 5828 5827 5826 5825
5813 5814 5814 5814 5813 5814 5814 5815 5817 5818 5819 5819 5820 5821 5821 5821 5822 5823 5823 5824 5825 5826 5826 5827 5828 5829 5830 5830 5831 5832 5832 5832 5832 5832 5832 5833 5833 5833 5834 5835 5835 5835 5835 5835 5835 5835 5835 5835 5835 5835 5835 5835 5834 5834 5834 5833 5833 5833 5833 5833 5832 5832 5832 5831 5831 5830 5829 5829 5828 5827 5826 5826 5825 5824 5824 5823 5822 5822 5821 5820 5819 5819 5818 5818 5817
5807 5807 5808 5807 5806 5806 5807 5808 5808 5809 5810 5812 5813 5813 5813 5814 5814 5815 5816 5817 5818 5819 5819 5820 5821 5821 5822 5822 5823 5824 5825 5825 5825 5825 5825 5826 5827 5827 5828 5828 5828 5828 5828 5828 5828 5828 5828 5828 5827 5827 5827 5826 5826 5826 5826 5825 5825 5825 5825 5825 5825 5824 5824 5823 5822 5822 5821 5820 5819 5818 5817 5817 5816 5816 5815 5814 5814 5813 5812 5811 5810 5810 5809 5808 5807
5800 5801 5801 5800 5800 5800 5800 5800 5800 5801 5802 5803 5804 5805 5806 5806 5807 5807 5808 5809 5810 5811 5812 5812 5813 5813 5814 5814 5815 5816 5816 5816 5816 5816 5817 5818 5819 5820 5821 5821 5821 5821 5820 5820 5820 5819 5819 5819 5818 5818 5818 5818 5818 5817 5817 5817 5817 5817 5817 5816 5816 5816 5815 5815 5814 5814 5813 5812 5810 5809 5808 5808 5807 5807 5806 5806 5805 5804 5803 5802 5802 5801 5800 5799 5798
5794 5795 5795 5794 5793 5793 5793 5793 5793 5793 5794 5794 5795 5796 5797 5798 5798 5799 5800 5801 5802 5803 5804 5804 5804 5804 5805 5806 5806 5807 5807 5807 5807 5807 5808 5809 5810 5812 5812 5812 5812 5812 5811 5811 5811 5810 5810 5810 5809 5809 5809 5809 5809 5808 5808 5808 5808 5808 5807 5807 5807 5806 5806 5806 5806 5805 5804 5803 5802 5801 5800 5799 5799 5798 5797 5797 5796 5795 5794 5793 5793 5792 5791 5790 5789
5787 5788 5788 5787 5787 5786 5786 5786 5786 5786 5787 5787 5787 5787 5788 5788 5789 5790 5791 5793 5794 5795 5795 5796 5796 5796 5796 5797 5797 5797 5798 5798 5798 5798 5798 5798 5800 5801 5802 5803 5803 5802 5802 5802 5802 5801 5801 5801 5800 5800 5799 5799 5799 5799 5799 5799 5799 5798 5798 5797 5797 5797 5797 5797 5796 5795 5795 5794 5793 5792 5792 5791 5790 5790 5789 5788 5787 5786 5786 5784 5783 5782 5782 5781 5779
5780 5780 5780 5780 5779 5779 5779 5779 5779 5780 5780 5780 5779 5779 5779 5779 5779 5780 5782 5784 5785 5786 5786 5787 5787 5787 5788 5788 5788 5788 5788 5788 5788 5789 5789 5789 5789 5791 5792 5792 5793 5793 5792 5792 5792 5792 5791 5791 5790 5790 5789 5789 5789 5789 5789 5789 5789 5788 5787 5787 5787 5787 5787 5786 5786 5785 5785 5784 5784 5783 5783 5782 5782 5781 5779 5778 5778 5777 5776 5775 5774 5773 5772 5771 5770
5773 5773 5772 5772 5772 5772 5772 5772 5773 5773 5773 5772 5771 5771 5771 5771 5771 5771 5771 5773 5775 5776 5776 5777 5778 5778 5779 5779 5779 5779 5779 5779 5779 5779 5779 5780 5780 5781 5782 5782 5782 5782 5782 5782 5781 5781 5780 5780 5780 5780 5780 5780 5780 5780 5779 5779 5779 5778 5777 5777 5777 5776 5776 5776 5775 5775 5774 5774 5774 5774 5773 5773 5772 5771 5770 5769 5768 5767 5766 5765 5764 5763 5761 5760 5759
5764 5764 5764 5764 5764 5765 5765 5765 5765 5765 5765 5765 5764 5764 5763 5763 5762 5761 5761 5763 5764 5765 5766 5767 5767 5768 5769 5769 5770 5770 5770 5770 5770 5770 5770 5771 5771 5772 5772 5773 5773 5773 5772 5772 5771 5770 5770 5769 5769 5769 5769 5769 5770 5770 5769 5769 5769 5768 5768 5767 5767 5766 5766 5765 5764 5764 5764 5763 5763 5763 5763 5763 5762 5761 5760 5759 5757 5756 5755 5754 5753 5752 5750 5749 5748
5755 5755 5755 5756 5756 5756 5756 5756 5756 5757 5757 5757 5757 5757 5756 5755 5753 5752 5752 5753 5755 5755 5756 5756 5757 5757 5758 5759 5760 5760 5760 5760 5761 5761 5761 5761 5762 5762 5762 5763 5763 5763 5763 5762 5761 5760 5760 5759 5759 5759 5759 5759 5759 5759 5759 5759 5758 5758 5758 5757 5757 5756 5755 5755 5754 5754 5753 5753 5753 5752 5752 5752 5752 5751 5749 5748 5747 5746 5744 5743 5742 5740 5739 5738 5736
5746 5746 5747 5747 5747 5747 5746 5746 5746 5747 5747 5748 5749 5749 5748 5746 5744 5744 5743 5744 5745 5746 5746 5746 5746 5747 5748 5749 5749 5750 5750 5751 5751 5751 5751 5751 5751 5752 5753 5753 5753 5752 5752 5751 5750 5750 5749 5749 5749 5748 5749 5749 5749 5749 5748 5748 5747 5747 5747 5747 5746 5745 5745 5744 5743 5743 5742 5742 5742 5742 5741 5741 5740 5739 5738 5736 5736 5735 5733 5732 5731 5729 5728 5727 5725
5737 5738 5738 5738 5738 5738 5737 5737 5737 5737 5737 5738 5738 5739 5738 5737 5735 5735 5734 5735 5735 5736 5736 5736 5736 5737 5738 5738 5739 5739 5740 5741 5741 5740 5740 5740 5741 5742 5742 5742 5742 5741 5740 5740 5740 5739 5739 5738 5738 5738 5738 5738 5738 5738 5738 5737 5736 5735 5735 5735 5735 5734 5734 5733 5732 5731 5731 5731 5731 5731 5731 5730 5729 5727 5726 5725 5724 5723 5722 5721 5720 5718 5717 5716 5714
5728 5728 5728 5728 5729 5728 5728 5727 5727 5727 5727 5727 5728 5729 5728 5728 5727 5726 5725 5725 5725 5726 5726 5727 5727 5728 5728 5728 5729 5730 5731 5731 5731 5731 5731 5731 5731 5731 5731 5730 5730 5729 5729 5729 5729 5729 5728 5728 5728 5728 5728 5728 5728 5728 5727 5727 5726 5725 5724 5724 5724 5723 5722 5721 5721 5720 5720 5720 5720 5720 5719 5718 5717 5716 5714 5713 5712 5711 5710 5709 5708 5707 5706 5704 5703
5719 5719 5718 5719 5719 5719 5719 5719 5718 5718 5717 5717 5718 5718 5719 5719 5718 5718 5716 5716 5716 5716 5717 5717 5718 5718 5718 5719 5720 5721 5721 5721 5721 5721 5721 5721 5720 5720 5719 5719 5719 5719 5719 5719 5719 5719 5719 5718 5718 5718 5718 5717 5717 5717 5717 5716 5715 5715 5714 5713 5712 5712 5711 5710 5709 5708 5708 5708 5708 5708 5707 5706 5705 5704 5703 5702 5701 5700 5699 5697 5696 5695 5694 5693 5691
5711 5711 5710 5710 5710 5710 5710 5710 5709 5708 5708 5708 5708 5708 5710 5711 5711 5709 5708 5707 5707 5708 5708 5709 5709 5709 5709 5709 5710 5711 5711 5711 5711 5712 5711 5711 5710 5710 5710 5709 5709 5709 5710 5710 5710 5710 5709 5709 5708 5708 5708 5707 5707 5706 5706 5706 5705 5704 5703 5702 5701 5700 5699 5698 5697 5697 5696 5696 5696 5695 5695 5694 5693 5692 5691 5690 5689 5688 5687 5686 5684 5683 5682 5681 5679
5703 5703 5702 5702 5702 5701 5701 5701 5700 5699 5700 5699 5699 5699 5701 5703 5702 5700 5699 5699 5699 5699 5699 5700 5700 5700 5699 5699 5700 5701 5701 5701 5701 5702 5702 5702 5702 5701 5701 5700 5700 5700 5701 5701 5701 5701 5700 5699 5699 5699 5699 5698 5697 5697 5696 5696 5695 5694 5693 5692 5690 5689 5688 5687 5686 5686 5685 5685 5684 5684 5683 5682 5681 5680 5679 5678 5678 5677 5675 5674 5673 5672 5671 5669 5668
5695 5695 5694 5694 5693 5693 5692 5692 5691 5691 5691 5690 5690 5690 5692 5692 5692 5691 5691 5691 5691 5690 5690 5690 5690 5690 5690 5691 5691 5692 5691 5691 5692 5692 5692 5692 5692 5691 5691 5691 5691 5692 5692 5693 5692 5692 5691 5690 5689 5689 5689 5689 5688 5687 5686 5685 5685 5684 5682 5681 5679 5678 5677 5676 5675 5674 5674 5673 5673 5672 5671 5670 5670 5669 5668 5667 5666 5665 5664 5663 5662 5661 5660 5659 5657